Starlink 32783

operational
NORAD ID: 62606 Int'l Des: 2025-008 Owner: SPXS Country: US Constellation: starlink
LEOCIRCULAR

关于 Starlink 32783

正在加载描述...

实时位置

正在加载3D地球...

即将过境

高度历史

Altitude vs Time

uPlot chart will show altitude changes over time

两行轨道根数

1 62606U 25008V 25352.14444550 .00016395 00000-0 60370-3 0 9992
2 62606 42.9994 18.3969 0001456 274.7270 85.3416 15.27596252 53098
Epoch: Dec 18, 2025 • Age: 28 hours

当前状态

高度 484.6 km
速度 7.63 km/s
星下点 33.06°N, 151.66°W
发射日期 Jan 13, 2025
运行时间 0.9 years
类型 internet

技术详情

分类 Payload
质量 730.00 kg
干质量 700.00 kg
总质量 730.00 kg
长度 0.30 m
直径 4.10 m
跨度 29.00 m
形状 Box + pan
制造商 SPXS
平台类型 Starlink V2M
阶段状态 In Orbit
所有者/国家 SPXS/US

大型星座

Loading constellations...